User: anonymous   Login
Location: Caltech
(34.1382°N, 118.1253°W)
Time: 05:03:16
(UTC-07:00)
Language:

Cosmos 2237 Rocket - Orbit

View from above orbital plane
View from above orbital plane
View from above satellite
View from above satellite

Ground track
Ground track

The orbit data is extracted from the following two-line orbital elements,

1 22566U 93016B   17085.84687728 -.00000317 +00000-0 -13913-3 0  9994
2 22566 071.0063 239.7603 0012714 260.6829 099.2856 14.14944778239628
Epoch (UTC): 26 March 2017 20:19:30
Eccentricity: 0.0012714
inclination: 71.0063°
perigee height: 833 km
apogee height: 851 km
right ascension of ascending node: 239.7603°
argument of perigee: 260.6829°
revolutions per day: 14.14944778
mean anomaly at epoch: 99.2856°
orbit number at epoch: 23962

The dashed part of the orbit path shows where the satellite is in the earth's shadow,  

DLR